DELTA 1 DEB, 7051

Orbit data source: Space-Track

DELTA 1 DEB, 7051 is space debris in SSO originally from a launch on Tue, 06 Nov 1973 UTC launched from the Air Force Western Test Range (AFWTR). Debris objects in space refer to the collection of defunct objects orbiting the Earth. Examples of debris include non-operational satellites, rocket bodies, and fragments generated from explosions, collisions, or faulty payload assembly.

Loading next visibility...
Identifier
7051, 1973-086AT
Orbit
SSO
Country
Flag of USUS
Related business
Manufacturer
Unknown
Mission
Spacecraft
Bus & Motor
Unknown
Mass
Unknown
Launch date (UTC)
1973-11-06 (52 years ago)
Launch vehicle
Unknown
Launch site
Air Force Western Test Range (AFWTR)
Object type
Payload
Rocket body
Debris
Shape & HBR
Unknown shape, 0.1 m
Radar Cross Section
Medium (>0.1 m² and <1 m²)

Expand to show TLE details & history
Last TLE update: 9 hours ago

TLE from 9 hours ago
0 DELTA 1 DEB
1  7051U 73086AT  25298.01521936  .00000002  00000-0  41117-3 0  9999
2  7051 102.5388 315.6759 0066039 156.3722 264.6211 12.28967821323824
Epoch: 2025-10-25T00:21Z
TLE epoch observation values (Epoch: 2025-10-25T00:21:54.952Z)
Latitude
58.02381°
Longitude
-104.21913°
Altitude
1,568.518 km
Speed
7.087 km/s
True Right ascension
19h 39m 38s
True Declination
57° 53' 06"
Sunlit
Object was in daylight at epoch
Visualization orbit readout
Latitude
Unknown
Longitude
Unknown
Altitude
Unknown
Speed
Unknown
Apparent Right ascension
Unknown
Apparent Declination
Unknown
Sunlit
N/A
Visualization observer readout
Local Sidereal Time
04:49:12
Azimuth
Unknown
Elevation
Unknown
Doppler factor
Unknown
Orbital elements
Apogee altitude
1,603.706 km
Perigee altitude
1,498.975 km
Semi-major axis
7,929.478 km
Eccentricity
0.0066
Inclination
102.5388°
RAAN
315.6759°
Arg. of periapsis
156.3722°
True anomaly
263.86829°
Mean anomaly
264.6211°
Eccentric anomaly
264.24463°
Mean motion
3.0738 °/min
Orbital period
117.12 mins
BSTAR
0.00041117
Loading maneuver chart data...
Computing Atmospheric mass density...
Loading historical data...
Loading historical data...
Loading historical data...
Loading historical data...
Loading historical data...
Loading historical data...
Loading historical data...

Documentation

Showing up to 5 results
|